This demonstration page uses our WeatherBlox Daily Observations layout. Learn more.

Left ArrowRight Arrow

Hourly Observations for January 15, 2018

Temp ( °F °C ) Dew Point ( °F °C ) Humidity (%) Winds ( mph kmh ) Pressure ( in mb ) Visibility ( mi km ) Precip ( " mm )
12:15 am 00:15 Clear 18 -8 9 -13 68 68 N 3 6 30.68 1039 10 16.0934 0 0
12:35 am 00:35 Clear 18 -8 9 -13 68 68 N 3 6 30.68 1039 10 16.0934 0 0
12:55 am 00:55 Clear 18 -8 9 -13 68 68 Calm 30.65 1038 10 16.0934 0 0
1:15 am 01:15 Clear 16 -9 10 -12 79 79 Calm 30.68 1039 10 16.0934 0 0
1:35 am 01:35 Clear 14 -10 10 -12 85 85 Calm 30.68 1039 10 16.0934 0 0
1:55 am 01:55 Clear 18 -8 9 -13 68 68 NE 3 6 30.65 1038 10 16.0934 0 0
2:15 am 02:15 Clear 18 -8 9 -13 68 68 Calm 30.65 1038 10 16.0934 0 0
2:35 am 02:35 Clear 18 -8 9 -13 68 68 Calm 30.65 1038 10 16.0934 0 0
2:55 am 02:55 Clear 18 -8 10 -12 73 73 Calm 30.65 1038 10 16.0934 0 0
3:15 am 03:15 Clear 16 -9 10 -12 79 79 Calm 30.65 1038 10 16.0934 0 0
3:35 am 03:35 Clear 16 -9 10 -12 79 79 Calm 30.65 1038 10 16.0934 0 0
3:55 am 03:55 Clear 16 -9 10 -12 79 79 Calm 30.62 1037 10 16.0934 0 0
4:15 am 04:15 Clear 16 -9 10 -12 79 79 Calm 30.65 1038 10 16.0934 0 0
4:35 am 04:35 Clear 14 -10 10 -12 85 85 N 3 6 30.65 1038 10 16.0934 0 0
4:55 am 04:55 Clear 16 -9 10 -12 79 79 N 3 6 30.65 1038 10 16.0934 0 0
5:15 am 05:15 Clear 16 -9 10 -12 79 79 NNE 5 7 30.62 1037 10 16.0934 0 0
5:35 am 05:35 Clear 16 -9 10 -12 79 79 NNE 6 9 30.62 1037 10 16.0934 0 0
5:55 am 05:55 Clear 16 -9 10 -12 79 79 NE 5 7 30.62 1037 10 16.0934 0 0
6:15 am 06:15 Clear 14 -10 10 -12 85 85 NE 3 6 30.62 1037 10 16.0934 0 0
6:35 am 06:35 Clear 14 -10 10 -12 85 85 N 6 9 30.62 1037 10 16.0934 0 0
6:55 am 06:55 Clear 14 -10 10 -12 85 85 N 7 11 30.62 1037 10 16.0934 0 0
7:15 am 07:15 Clear 16 -9 10 -12 79 79 N 7 11 30.65 1038 10 16.0934 0 0
7:35 am 07:35 Sunny 16 -9 10 -12 79 79 NNE 6 9 30.62 1037 10 16.0934 0 0
7:55 am 07:55 Sunny 16 -9 10 -12 79 79 NNE 6 9 30.62 1037 10 16.0934 0 0
8:15 am 08:15 Sunny 16 -9 10 -12 79 79 N 6 9 30.65 1038 10 16.0934 0 0
8:35 am 08:35 Sunny 18 -8 10 -12 73 73 NNE 8 13 30.65 1038 10 16.0934 0 0
8:55 am 08:55 Sunny 18 -8 10 -12 73 73 NNE 7 11 30.65 1038 10 16.0934 0 0
9:15 am 09:15 Partly Cloudy 19 -7 10 -12 68 68 NNE 3 6 30.65 1038 10 16.0934 0 0
9:35 am 09:35 Cloudy 19 -7 10 -12 68 68 NE 5 7 30.65 1038 10 16.0934 0 0
9:55 am 09:55 Cloudy 19 -7 12 -11 73 73 NNE 3 6 30.65 1038 10 16.0934 0 0
10:15 am 10:15 Cloudy 21 -6 12 -11 68 68 Calm 30.65 1038 10 16.0934 0 0
10:35 am 10:35 Cloudy 21 -6 14 -10 74 74 N 5 7 30.65 1038 10 16.0934 0 0
10:55 am 10:55 Cloudy 23 -5 14 -10 68 68 NE 3 6 30.65 1038 10 16.0934 0 0
11:15 am 11:15 Cloudy 23 -5 14 -10 68 68 Calm 30.62 1037 10 16.0934 0 0
11:35 am 11:35 Cloudy 25 -4 16 -9 69 69 Calm 30.62 1037 10 16.0934 0 0
11:55 am 11:55 Cloudy 27 -3 18 -8 69 69 Calm 30.59 1036 10 16.0934 0 0
12:15 pm 12:15 Cloudy 27 -3 18 -8 69 69 N 5 7 30.56 1035 10 16.0934 0 0
12:35 pm 12:35 Cloudy 28 -2 18 -8 64 64 Calm 30.53 1034 10 16.0934 0 0
12:55 pm 12:55 Cloudy 28 -2 19 -7 69 69 Calm 30.53 1034 10 16.0934 0 0
1:15 pm 13:15 Cloudy 30 -1 19 -7 64 64 NE 3 6 30.53 1034 10 16.0934 0 0
1:35 pm 13:35 Cloudy 30 -1 19 -7 64 64 NE 3 6 30.53 1034 10 16.0934 0 0
1:55 pm 13:55 Mostly Cloudy 30 -1 19 -7 64 64 Calm 30.53 1034 10 16.0934 0 0
2:15 pm 14:15 Partly Cloudy 30 -1 19 -7 64 64 E 6 9 30.5 1033 10 16.0934 0 0
2:35 pm 14:35 Sunny 30 -1 21 -6 69 69 Calm 30.5 1033 10 16.0934 0 0
2:55 pm 14:55 Sunny 32 0 21 -6 64 64 NE 5 7 30.48 1032 10 16.0934 0 0
3:15 pm 15:15 Sunny 32 0 21 -6 64 64 E 5 7 30.48 1032 10 16.0934 0 0
3:35 pm 15:35 Sunny 32 0 21 -6 64 64 Calm 30.5 1033 10 16.0934 0 0
3:55 pm 15:55 Sunny 32 0 21 -6 64 64 Calm 30.5 1033 10 16.0934 0 0
4:15 pm 16:15 Sunny 32 0 21 -6 64 64 Calm 30.5 1033 10 16.0934 0 0
4:35 pm 16:35 Sunny 32 0 21 -6 64 64 Calm 30.5 1033 10 16.0934 0 0
4:55 pm 16:55 Sunny 30 -1 21 -6 69 69 Calm 30.53 1034 10 16.0934 0 0
5:15 pm 17:15 Clear 30 -1 21 -6 69 69 Calm 30.5 1033 10 16.0934 0 0
5:35 pm 17:35 Clear 30 -1 21 -6 69 69 Calm 30.5 1033 10 16.0934 0 0
5:55 pm 17:55 Clear 28 -2 21 -6 74 74 Calm 30.53 1034 10 16.0934 0 0
6:15 pm 18:15 Clear 28 -2 23 -5 80 80 Calm 30.53 1034 10 16.0934 0 0
6:35 pm 18:35 Clear 28 -2 21 -6 74 74 Calm 30.53 1034 10 16.0934 0 0
6:55 pm 18:55 Clear 28 -2 21 -6 74 74 Calm 30.5 1033 10 16.0934 0 0
7:15 pm 19:15 Clear 28 -2 21 -6 74 74 Calm 30.5 1033 10 16.0934 0 0
7:35 pm 19:35 Clear 27 -3 21 -6 80 80 Calm 30.53 1034 10 16.0934 0 0
7:55 pm 19:55 Clear 27 -3 21 -6 80 80 Calm 30.5 1033 10 16.0934 0 0
8:15 pm 20:15 Partly Cloudy 25 -4 21 -6 86 86 Calm 30.53 1034 10 16.0934 0 0
8:35 pm 20:35 Mostly Cloudy 27 -3 21 -6 80 80 Calm 30.53 1034 10 16.0934 0 0
8:55 pm 20:55 Partly Cloudy 27 -3 21 -6 80 80 Calm 30.5 1033 10 16.0934 0 0
9:15 pm 21:15 Partly Cloudy 27 -3 21 -6 80 80 Calm 30.53 1034 10 16.0934 0 0
9:35 pm 21:35 Partly Cloudy 27 -3 21 -6 80 80 ESE 5 7 30.5 1033 10 16.0934 0 0
9:55 pm 21:55 Partly Cloudy 27 -3 21 -6 80 80 Calm 30.5 1033 10 16.0934 0 0
10:15 pm 22:15 Partly Cloudy 27 -3 23 -5 86 86 Calm 30.5 1033 10 16.0934 0 0
10:35 pm 22:35 Mostly Cloudy 27 -3 25 -4 93 93 Calm 30.53 1034 10 16.0934 0 0
10:55 pm 22:55 Cloudy 27 -3 23 -5 86 86 Calm 30.53 1034 10 16.0934 0 0
11:15 pm 23:15 Mostly Cloudy 27 -3 23 -5 86 86 Calm 30.5 1033 10 16.0934 0 0
11:35 pm 23:35 Partly Cloudy 27 -3 23 -5 86 86 Calm 30.5 1033 10 16.0934 0 0
11:55 pm 23:55 Partly Cloudy 27 -3 23 -5 86 86 Calm 30.48 1032 10 16.0934 0 0

Powered by AerisWeather